Weather History for KDLS - August, 2013

Change the Weather History Date:

Monday, August 5, 2013

  Actual Average Record
Temperature  
Mean Temperature 80 °F -  
Max Temperature 98 °F 89 °F 105 °F (1972)
Min Temperature 64 °F 62 °F 48 °F (1964)
Cooling Degree Days 16    
Growing Degree Days 30 (Base 50)    
Moisture  
Dew Point 56 °F    
Average Humidity 45    
Maximum Humidity 70    
Minimum Humidity 18    
Precipitation  
Precipitation 0.02 in - - ()
Sea Level Pressure  
Sea Level Pressure 29.88 in    
Wind  
Wind Speed 9 mph (NW)    
Max Wind Speed 20 mph    
Max Gust Speed 24 mph    
Visibility 10 miles    
Events      
Averages and records for this station are not official NWS values.
T = Trace of Precipitation, MM = Missing Value Source: NWS Daily Summary

Daily Weather History Graph

Daily Weather History Graph

Search for Another Location

Airport or City:

Trip Planner

Search our weather history database for the weather conditions in past years. The results will help you decide how hot, cold, wet, or windy it might be!

Date:

Astronomy

Aug. 05, 2013 Rise Set
Actual Time 5:53 AM PDT 8:27 PM PDT
Civil Twilight 5:19 AM PDT 9:00 PM PDT
Nautical Twilight 4:37 AM PDT 9:42 PM PDT
Astronomical Twilight 3:48 AM PDT 10:30 PM PDT
Moon 4:54 AM PDT (8/5) 7:28 PM PDT (8/5)
Length of Visible Light 15h 40m
Length of Day
14h 33m
Waning Crescent, 1% of the Moon is Illuminated
Aug 5
Waning Crescent
Aug 6
New
Aug 14
First Quarter
Aug 20
Full
Aug 28
Last Quarter

Hourly Weather History & Observations

Time (PDT) Temp. Heat Index Dew Point Humidity Pressure Visibility Wind Dir Wind Speed Gust Speed Precip Events Conditions
12:53 AM 77.0 °F - 55.9 °F 48% 29.89 in 10.0 mi NW 13.8 mph - N/A   Clear
1:53 AM 71.1 °F - 51.1 °F 49% 29.90 in 10.0 mi West 3.5 mph - N/A   Clear
2:53 AM 72.0 °F - 57.9 °F 61% 29.90 in 10.0 mi WNW 9.2 mph - N/A   Clear
3:53 AM 71.1 °F - 59.0 °F 66% 29.91 in 10.0 mi NW 11.5 mph 19.6 mph N/A   Clear
4:53 AM 68.0 °F - 57.0 °F 68% 29.91 in 10.0 mi SSW 3.5 mph - N/A   Clear
5:53 AM 64.9 °F - 55.0 °F 70% 29.92 in 10.0 mi Calm Calm - N/A   Clear
6:53 AM 66.0 °F - 55.9 °F 70% 29.94 in 10.0 mi ESE 3.5 mph - N/A   Clear
7:53 AM 71.1 °F - 59.0 °F 66% 29.94 in 10.0 mi West 3.5 mph - N/A   Clear
8:53 AM 75.0 °F - 59.0 °F 57% 29.94 in 10.0 mi Variable 3.5 mph - N/A   Clear
9:53 AM 79.0 °F - 59.0 °F 50% 29.93 in 10.0 mi NNW 4.6 mph - N/A   Clear
10:53 AM 84.9 °F 84.4 °F 59.0 °F 41% 29.92 in 10.0 mi NNW 11.5 mph - 0.02 in   Clear
11:53 AM 88.0 °F 86.7 °F 57.0 °F 35% 29.90 in 10.0 mi NNW 15.0 mph - N/A   Clear
12:53 PM 91.9 °F 89.5 °F 53.1 °F 27% 29.88 in 10.0 mi NNW 12.7 mph - N/A   Clear
1:53 PM 95.0 °F - 48.9 °F 21% 29.87 in 10.0 mi NNW 9.2 mph - N/A   Clear
2:53 PM 96.1 °F - 48.0 °F 19% 29.85 in 10.0 mi NW 9.2 mph - N/A   Clear
3:53 PM 97.0 °F - 46.0 °F 18% 29.82 in 10.0 mi NW 12.7 mph - N/A   Clear
4:53 PM 95.0 °F 92.7 °F 54.0 °F 25% 29.80 in 10.0 mi NNW 17.3 mph 23.0 mph N/A   Clear
5:53 PM 93.9 °F 92.0 °F 55.0 °F 27% 29.80 in 10.0 mi NW 19.6 mph 24.2 mph N/A   Clear
6:53 PM 91.0 °F 88.9 °F 55.0 °F 29% 29.80 in 10.0 mi NNW 11.5 mph 24.2 mph N/A   Clear
7:53 PM 86.0 °F 85.4 °F 59.0 °F 40% 29.81 in 10.0 mi NNW 10.4 mph - N/A   Clear
8:53 PM 82.9 °F 82.8 °F 59.0 °F 44% 29.83 in 10.0 mi NW 10.4 mph - N/A   Clear
9:53 PM 81.0 °F 81.1 °F 57.9 °F 45% 29.85 in 10.0 mi NW 8.1 mph - N/A   Clear
10:53 PM 79.0 °F - 57.0 °F 47% 29.85 in 10.0 mi West 3.5 mph - N/A   Clear
11:53 PM 78.1 °F - 59.0 °F 52% 29.86 in 10.0 mi NW 16.1 mph - N/A   Clear